Location: Northcutt
(34.7304°N, 84.4305°W)
Time: 20:03:31
(UTC+00:00)

Transit 2A Rocket - Pass Details

Date: 09 October 2022
Orbit: 589 x 911 km, 66.7° (Epoch: 03 December)

Event Time Altitude Azimuth Distance (km) Brightness Sun altitude
Rises 19:56:12 0° 317° (NW) 3,121 8.2 35.5°
Reaches altitude 10° 19:58:50 10° 304° (NW) 2,253 7.7 35.1°
Maximum altitude 20:02:57 25° 251° (WSW) 1,555 8.3 34.4°
Drops below altitude 10° 20:07:21 10° 198° (SSW) 2,415 8.5 33.7°
Sets 20:10:18 0° 186° (S) 3,396 8.9 33.3°
